[[{"header":{"parameterUnit":"m.s-1","parameterCategory":1,"la1":30.2991,"la2":30.254,"lo1":-89.0895,"lo2":-89.0444,"dy":0.0017,"dx":0.0017,"nx":28,"ny":28,"refTime":"2023-07-23T21:00:00:Z","depth":0,"parameterNumber":2,"parameterNumberName":"U-component_of_WINDS"},"data":[0,0,0,0,0,0,0,0,0,0,0,0,0,0,0,0,0,0,0,0,0,0,0,0,0,0,0,0,0,0,0,0,0,0,0,0,0,0,0,0,0,0,0,0,0,0,0,0,0,0,0,0,0,0,0,0,0,0,2.3071,2.3074,0,2.3352,2.3355,2.3358,2.3438,2.3436,2.3435,2.3433,2.3726,2.3735,2.3744,0,0,0,0,0,0,0,0,0,0,0,0,0,2.2607,2.2615,2.307,2.3074,2.3077,2.3351,2.3355,2.3359,2.3438,2.3436,2.3434,2.3433,2.3723,2.3734,2.3745,0,0,0,0,0,0,0,0,0,0,0,0,0,2.284,2.2617,2.307,2.315,2.316,2.335,2.3355,2.336,2.3439,2.3436,2.3434,2.3432,2.3719,2.3733,2.3747,2.3879,0,0,2.3789,2.3795,0,0,0,0,0,0,0,0,2.2827,2.2857,2.3135,2.3145,2.3156,2.3357,2.3299,2.3534,2.3439,2.3333,2.3433,2.343,2.3606,2.3629,2.3687,2.3893,2.3905,2.379,2.3799,2.3805,2.3809,0,0,0,0,0,0,0,2.281,2.2845,2.3182,2.3139,2.3152,2.3173,2.3204,2.3344,2.3479,2.3342,2.3348,2.338,2.3611,2.3673,2.3694,2.391,2.379,2.3802,2.3811,2.3816,2.4238,2.4241,0,0,0,0,0,0,2.278,2.2831,2.3173,2.319,2.2982,2.3183,2.3217,2.3295,2.3478,2.3503,2.3382,2.3383,2.3651,2.3678,2.3705,2.3871,2.3805,2.3818,2.3826,2.4235,2.4238,2.4242,0,0,0,0,0,0,2.277,2.2809,2.3162,2.3013,2.3059,2.3194,2.328,2.3302,2.3364,2.3508,2.3533,2.342,2.365,2.3685,2.3835,2.3882,2.3824,2.3836,2.4232,2.4236,2.424,2.4205,0,0,0,0,0,0,2.2756,2.2805,2.2856,2.3013,2.3067,2.3285,2.3283,2.3309,2.3387,2.3391,2.355,2.3575,2.3651,2.3813,2.3848,2.39,2.3847,2.4228,2.4234,2.4239,2.4202,2.4207,2.4212,0,0,0,0,0,2.2739,2.2837,2.2858,2.2899,2.3133,2.3288,2.3319,2.3403,2.339,2.3443,2.3536,2.357,2.3871,2.3828,2.3868,2.3925,2.4225,2.4232,2.4238,2.42,2.4206,2.4212,0,0,0,0,0,0,2.2684,2.2859,2.2885,2.3036,2.3146,2.3301,2.337,2.3407,2.3524,2.3523,2.3624,2.366,2.3802,2.3879,2.3827,2.4062,2.4049,2.4064,2.4007,2.4014,2.4018,2.3997,2.3859,0,0,0,0,0,2.2689,2.2799,2.2946,2.3066,2.3119,2.3235,2.3306,2.336,2.348,2.3527,2.3631,2.3746,2.3867,2.3945,2.4064,2.4214,2.425,2.4273,2.4277,2.428,2.4292,2.4376,2.4388,2.4263,2.4263,2.4263,0,0,2.2702,2.2811,2.2875,2.3057,2.3149,2.3261,2.3274,2.3393,2.3478,2.3546,2.3693,2.3772,2.3908,2.4057,2.4129,2.4126,2.4334,2.4289,2.429,2.43,2.4384,2.4395,2.4406,2.4267,2.4266,2.4266,0,0,2.2782,2.2875,2.2984,2.3075,2.3213,2.3289,2.3315,2.3464,2.3519,2.3667,2.3721,2.3824,2.403,2.4124,2.4199,2.4312,2.4348,2.4348,2.4373,2.4453,2.4463,2.4472,2.4512,2.4525,2.4359,2.4359,2.4359,0,2.2781,2.295,2.3036,2.3151,2.323,2.3295,2.3406,2.3491,2.3661,2.3715,2.3709,2.3968,2.4064,2.4236,2.4263,2.4322,2.4355,2.4331,2.4455,2.4465,2.4475,2.4514,2.4528,2.4358,2.4359,2.4359,2.4359,0,2.2941,2.3058,2.313,2.329,2.3377,2.349,2.3593,2.3671,2.3718,2.3794,2.3944,2.4061,2.4205,2.425,2.4298,2.4429,2.4422,2.4434,2.4423,2.4484,2.4522,2.4538,2.4357,2.4357,2.4358,2.4358,0,0,2.2996,2.32,2.3225,2.3297,2.3454,2.3547,2.3662,2.38,2.3865,2.398,2.408,2.4252,2.4263,2.4348,2.4408,2.4478,2.4559,2.4482,2.4487,2.4491,2.471,2.4699,2.4715,2.4583,2.4587,2.4589,2.4698,0,2.3095,2.3302,2.3381,2.355,2.3659,2.3721,2.3822,2.3929,2.4004,2.4108,2.4192,2.4311,2.4318,2.4369,2.4442,2.4534,2.4604,2.4527,2.4678,2.4682,2.4641,2.4735,2.4725,2.4822,2.4713,2.4716,2.4718,0,2.3239,2.3352,2.3531,2.3672,2.3721,2.381,2.3942,2.4041,2.4164,2.4213,2.4306,2.436,2.4485,2.4465,2.4638,2.4584,2.4651,2.4705,2.4711,2.4728,2.4703,2.4754,2.4855,2.4869,2.4743,2.4741,2.4739,0,2.3259,2.3457,2.3589,2.365,2.3818,2.3879,2.3952,2.4073,2.415,2.4266,2.4317,2.4447,2.4518,2.4618,2.4707,2.4684,2.4871,2.4859,2.4916,2.4914,2.4953,2.4949,2.5064,2.4996,2.4996,2.4995,2.4995,0,2.3361,2.3468,2.36,2.3682,2.3804,2.3894,2.4013,2.409,2.4197,2.4295,2.4358,2.4449,2.456,2.4667,2.4737,2.4869,2.4901,2.4945,2.4962,2.4939,2.4933,2.4984,2.4979,2.4999,2.4999,2.4998,2.4997,0,2.3405,2.3498,2.3646,2.3791,2.3831,2.3914,2.404,2.4122,2.4198,2.4322,2.4356,2.4477,2.4605,2.4702,2.487,2.4917,2.5057,2.5076,2.5014,2.5023,2.5074,2.5067,2.5226,2.5251,2.5165,2.5166,2.5166,0,2.3463,2.3546,2.37,2.3769,2.3841,2.3952,2.403,2.4123,2.4202,2.4347,2.4412,2.4543,2.4653,2.4855,2.4959,2.5087,2.5109,2.5156,2.5129,2.5102,2.5109,2.5103,2.5111,2.5159,2.5159,2.516,2.516,0,2.3557,2.3598,2.3708,2.3833,2.3924,2.4028,2.4133,2.4186,2.4298,2.4384,2.4514,2.4599,2.4768,2.4898,2.5036,2.5113,2.5156,2.5167,2.5187,2.5164,2.5125,2.5146,2.5023,2.5164,2.5163,2.5163,2.5163,2.5163,2.361,2.3686,2.3805,2.3925,2.4013,2.4109,2.4192,2.4278,2.4387,2.453,2.4579,2.4712,2.4833,2.5022,2.5101,2.5208,2.5209,2.5238,2.5245,2.5251,2.5248,2.5107,2.5234,2.5234,2.5234,2.5234,2.5234,0,2.3707,2.3786,2.3894,2.4038,2.4132,2.416,2.4278,2.4355,2.4471,2.4579,2.4685,2.4834,2.496,2.5073,2.5204,2.5268,2.5291,2.53,2.5296,2.5313,2.524,2.5209,2.5279,2.5279,2.5279,2.5279,2.5279,2.5279,2.3768,2.3898,2.3952,2.4127,2.4206,2.4335,2.44,2.4489,2.4575,2.4738,2.4842,2.4913,2.5024,2.5163,2.528,2.5311,2.5356,2.536,2.5394,2.5324,2.5318,2.5313,2.5284,2.5369,2.5369,2.5459,2.546,2.546]},{"header":{"parameterUnit":"m.s-1","parameterCategory":1,"la1":30.2991,"la2":30.254,"lo1":-89.0895,"lo2":-89.0444,"dy":0.0017,"dx":0.0017,"nx":28,"ny":28,"refTime":"2023-07-23T21:00:00:Z","depth":0,"parameterNumber":3,"parameterNumberName":"V-component_of_WINDS"},"data":[0,0,0,0,0,0,0,0,0,0,0,0,0,0,0,0,0,0,0,0,0,0,0,0,0,0,0,0,0,0,0,0,0,0,0,0,0,0,0,0,0,0,0,0,0,0,0,0,0,0,0,0,0,0,0,0,0,0,2.5339,2.5338,0,2.5281,2.5281,2.528,2.5189,2.5188,2.5186,2.5184,2.5127,2.5127,2.5127,0,0,0,0,0,0,0,0,0,0,0,0,0,2.537,2.537,2.5339,2.5338,2.5337,2.5281,2.5281,2.528,2.519,2.5188,2.5186,2.5184,2.5127,2.5127,2.5127,0,0,0,0,0,0,0,0,0,0,0,0,0,2.5339,2.537,2.5339,2.5285,2.528,2.5281,2.5281,2.528,2.519,2.5187,2.5185,2.5183,2.5127,2.5127,2.5127,2.5177,0,0,2.5127,2.5127,0,0,0,0,0,0,0,0,2.5341,2.5338,2.5294,2.5289,2.5283,2.524,2.5271,2.5245,2.5191,2.5224,2.5184,2.5181,2.5167,2.5163,2.5158,2.5174,2.5172,2.5127,2.5127,2.5127,2.5127,0,0,0,0,0,0,0,2.5343,2.534,2.5316,2.5293,2.5287,2.5264,2.5257,2.5265,2.521,2.5221,2.5214,2.5209,2.5163,2.5158,2.5156,2.5171,2.5127,2.5127,2.5127,2.5127,2.5222,2.5224,0,0,0,0,0,0,2.5353,2.5342,2.5318,2.5314,2.5306,2.5266,2.5258,2.5256,2.521,2.52,2.5211,2.5205,2.516,2.5156,2.5154,2.5207,2.5127,2.5127,2.5127,2.522,2.5223,2.5225,0,0,0,0,0,0,2.5354,2.5352,2.532,2.5326,2.5321,2.5268,2.5267,2.5256,2.5251,2.5202,2.5192,2.5216,2.5157,2.5154,2.5171,2.5204,2.5127,2.5127,2.5217,2.522,2.5224,2.5315,0,0,0,0,0,0,2.5355,2.5353,2.5371,2.5327,2.5321,2.5339,2.5269,2.5257,2.5251,2.5243,2.5204,2.5195,2.5155,2.5172,2.5171,2.5202,2.5127,2.5213,2.5218,2.5223,2.5309,2.5322,2.5332,0,0,0,0,0,2.5357,2.54,2.5373,2.537,2.5343,2.5341,2.5337,2.529,2.5254,2.5272,2.524,2.5196,2.52,2.5174,2.5173,2.5205,2.5211,2.5217,2.5222,2.5304,2.5319,2.5332,0,0,0,0,0,0,2.545,2.5393,2.5362,2.5393,2.5372,2.5325,2.5347,2.5308,2.5297,2.529,2.5232,2.5224,2.5248,2.5228,2.52,2.5249,2.5199,2.5205,2.5261,2.5275,2.5287,2.5291,2.5127,0,0,0,0,0,2.5474,2.5477,2.5427,2.5459,2.545,2.54,2.5398,2.5363,2.534,2.5331,2.53,2.5279,2.5275,2.5274,2.5268,2.5306,2.5295,2.5327,2.5338,2.5348,2.5354,2.537,2.5383,2.5244,2.5244,2.5244,0,0,2.5524,2.5493,2.5499,2.5477,2.5457,2.5461,2.5394,2.5402,2.5404,2.5332,2.5346,2.5323,2.5296,2.5323,2.5333,2.5307,2.539,2.5355,2.5364,2.5364,2.5377,2.5391,2.5402,2.5248,2.5247,2.5246,0,0,2.5616,2.5594,2.5616,2.5597,2.5567,2.5534,2.5539,2.5498,2.548,2.5492,2.5438,2.544,2.5435,2.5417,2.5408,2.5492,2.545,2.5491,2.5552,2.5569,2.558,2.5589,2.5618,2.5629,2.5497,2.5497,2.5497,0,2.5682,2.5686,2.5634,2.5644,2.5635,2.5569,2.5591,2.5575,2.5546,2.5541,2.5512,2.5503,2.548,2.5501,2.5521,2.5516,2.552,2.5496,2.5583,2.5591,2.5599,2.5626,2.5637,2.5502,2.5502,2.5501,2.5501,0,2.5767,2.5771,2.5793,2.5764,2.5758,2.5775,2.5724,2.5725,2.569,2.5659,2.5672,2.5642,2.5628,2.563,2.5597,2.5646,2.5631,2.5593,2.5541,2.5619,2.5643,2.5653,2.551,2.5508,2.5506,2.5505,0,0,2.5918,2.5859,2.5868,2.5853,2.5814,2.5816,2.5829,2.5814,2.5814,2.5796,2.5805,2.5801,2.5765,2.5754,2.5718,2.5733,2.5799,2.5693,2.5691,2.5713,2.585,2.5878,2.5891,2.5772,2.5773,2.5775,2.5852,0,2.6002,2.602,2.5973,2.6003,2.6005,2.5941,2.5952,2.5929,2.5901,2.5898,2.5866,2.5864,2.5817,2.581,2.5822,2.5789,2.5826,2.5783,2.5779,2.5779,2.5787,2.5903,2.5934,2.6008,2.5861,2.5862,2.5863,0,2.6103,2.6087,2.6118,2.6075,2.6074,2.6085,2.6066,2.6065,2.6037,2.6015,2.6002,2.596,2.5969,2.5919,2.593,2.5902,2.5897,2.5881,2.5882,2.588,2.5826,2.5903,2.603,2.6041,2.5878,2.5877,2.5876,0,2.6208,2.6195,2.6211,2.6201,2.6152,2.6161,2.6141,2.6111,2.6104,2.6088,2.6083,2.6069,2.6061,2.6051,2.6005,2.5974,2.6021,2.5968,2.6002,2.6004,2.6015,2.6015,2.6143,2.6014,2.6014,2.6013,2.6013,0,2.6306,2.6327,2.6257,2.6267,2.6288,2.6233,2.6255,2.6229,2.6202,2.6205,2.615,2.6154,2.6093,2.609,2.6055,2.6068,2.6066,2.6048,2.6038,2.6052,2.6054,2.6048,2.6042,2.6016,2.6016,2.6015,2.6015,0,2.6428,2.6382,2.6395,2.6347,2.6335,2.6353,2.6311,2.6318,2.6285,2.629,2.6288,2.6236,2.623,2.6183,2.6167,2.6143,2.6169,2.615,2.6179,2.6172,2.6208,2.6205,2.6336,2.6349,2.6213,2.6215,2.6216,0,2.6493,2.6507,2.6461,2.6458,2.6441,2.6438,2.643,2.6376,2.6371,2.6339,2.635,2.6338,2.6327,2.6319,2.6281,2.6267,2.6246,2.6293,2.6244,2.6258,2.6246,2.6245,2.6246,2.6304,2.6305,2.6307,2.6308,0,2.6614,2.659,2.6581,2.6565,2.6557,2.6541,2.6522,2.6523,2.6463,2.646,2.6452,2.6443,2.6425,2.6414,2.6394,2.6373,2.633,2.6323,2.633,2.6345,2.6361,2.6351,2.6206,2.6321,2.6319,2.6319,2.6318,2.6317,2.6709,2.6717,2.6685,2.6677,2.6656,2.6639,2.6643,2.6609,2.6602,2.6583,2.6551,2.6548,2.6518,2.6485,2.6468,2.6464,2.6439,2.645,2.6452,2.6456,2.6463,2.6362,2.646,2.646,2.6459,2.6459,2.6459,0,2.6825,2.6801,2.6794,2.6768,2.6761,2.6721,2.6697,2.6694,2.6691,2.6667,2.6656,2.6646,2.6635,2.6595,2.6579,2.6584,2.6564,2.6581,2.658,2.6576,2.6486,2.6481,2.6598,2.6598,2.6598,2.6597,2.6597,2.6597,2.6885,2.6898,2.687,2.6871,2.6846,2.6842,2.6832,2.6815,2.6795,2.6786,2.6777,2.675,2.6719,2.67,2.6687,2.6676,2.6672,2.6696,2.6678,2.6596,2.6582,2.6569,2.6564,2.6696,2.6696,2.6768,2.6768,2.6769]}]]